Overview Statistics Trail Chart Weather Telemetry Raw packets
 

This is the latest recevied weather packets stored in our database for station/object SV1JSO-13. If no packets are shown the sender has not sent any weather packets the latest 10 day(s).

<< 82 83 84 85 86 87 88 >>
Time Temp. Humidity Pressure Rain* Wind** Luminosity Snow
1788065100 25.56° C 43% 1009.5 hPa 0 mm - 53 W/m² -
1788064800 25.56° C 43% 1009.5 hPa 0 mm - 45 W/m² -
1788064500 25.56° C 43% 1009.4 hPa 0 mm - 41 W/m² -
1788064200 25.56° C 44% 1009.4 hPa 0 mm - 38 W/m² -
1788063900 25.56° C 44% 1009.3 hPa 0 mm - 31 W/m² -
1788063600 25.56° C 43% 1009.3 hPa 0 mm - 24 W/m² -
1788063300 25.56° C 44% 1009.3 hPa 0 mm - 19 W/m² -
1788063000 25.56° C 43% 1009.3 hPa 0 mm - 15 W/m² -
1788062700 25.56° C 42% 1009.4 hPa 0 mm - 11 W/m² -
1788062400 26.11° C 42% 1009.3 hPa 0 mm - 7 W/m² -
1788062100 26.11° C 42% 1009.2 hPa 0 mm - 4 W/m² -
1788061800 26.11° C 42% 1009.1 hPa 0 mm - 2 W/m² -
1788061500 26.11° C 41% 1009.1 hPa 0 mm - 1 W/m² -
1788061200 26.11° C 41% 1009.3 hPa 0 mm - 0 W/m² -
1788060900 26.11° C 41% 1009.1 hPa 0 mm - 0 W/m² -
1788060600 26.11° C 41% 1009.3 hPa 0 mm - 0 W/m² -
1788060300 26.11° C 41% 1009.2 hPa 0 mm - 0 W/m² -
1788060000 26.11° C 40% 1009.1 hPa 0 mm - 0 W/m² -
1788059700 26.11° C 40% 1009.1 hPa 0 mm - 0 W/m² -
1788059400 26.11° C 40% 1009.1 hPa 0 mm - 0 W/m² -
1788059100 26.11° C 40% 1009 hPa 0 mm - 0 W/m² -
1788058800 26.11° C 40% 1008.9 hPa 0 mm - 0 W/m² -
1788058500 26.11° C 40% 1008.8 hPa 0 mm - 0 W/m² -
1788058200 26.11° C 39% 1008.9 hPa 0 mm - 0 W/m² -
1788057900 26.67° C 39% 1008.8 hPa 0 mm - 0 W/m² -

* Rain latest hour (hover to see other rain measurements)
** Current wind speed in m/s (hover to see current wind gust speed)